Location: Alpine
(43.1636°N, 111.0180°W)
Time: 04:22:04
(UTC+00:00)

Tiros 1 despin weight - Pass Details

Date: 30 May 2022
Orbit: 591 x 639 km, 48.2° (Epoch: 30 June)

Event Time Altitude Azimuth Distance (km) Brightness Sun altitude
Rises 04:05:20 0° 291° (WNW) 2,859 ? -11.0°
Reaches altitude 10° 04:07:42 10° 296° (WNW) 1,947 ? -11.3°
Maximum altitude 04:12:05 55° 15° (NNE) 723 ? -11.8°
Drops below altitude 10° 04:16:24 10° 93° (E) 1,922 ? -12.4°
Enters shadow 04:16:25 10° 93° (E) 1,927 ? -12.4°
Sets 04:18:43 0° 98° (E) 2,819 - -12.7°
